EXPRESS 103

Last updated on Tue Sep 22 2026 00:03:15 GMT+0000 (Coordinated Universal Time)

1 45985U 20053A 26264.43689711 -.00000284 00000+0 00000+0 0 9993 2 45985 0.0396 259.9845 0001289 191.7902 162.3239 1.00271496 22619
UTC large
Height (km)
Speed (km/s)
/
Latitude / Longitude
Inclination (degrees)
Orbital Period (minutes)
Azimuth
Elevation
Range (km)
Doppler Factor

Next 0 passes for location: London (51.5072 / 0.1276)

No passes found over London.
EXPRESS 103